Weather in Znamenskoe

Russia / Chechen Republic     43°40′39″N   45°07′30″E
temp.,
°C
wind,
m/s
gust,
m/s
humid.,
%
clouds,
%
prec.,
mm/h
press.,
hPa
HPBL,
m
24 october, sun
sun2400:00+13se01480 0.0 101910
03:00+12w33560 0.0 101934
06:00+10w36648 0.0 102088
09:00+14w465371 0.0 1020280
12:00+18nw344469 0.0 1019703
15:00+19n234437 0.0 10171046
18:00+16n2254100 0.0 101733
21:00+14ne236742 0.0 101749
25 october, mon
mon2500:00+13nne237896 0.0 101654
03:00+12nw2376100 0.0 101745
06:00+11nnw7982100 0.6 1020759
09:00+7nw7981100 1.6 10251006
12:00+5wnw6893100 1.8 1028717
15:00+6w5788100 3.1 1028900
18:00+6w5785100 0.6 1030844
21:00+7wsw6979100 0.9 1031726
26 october, tue
tue2600:00+7w587784 0.0 1031383
03:00+6wnw2581100 0.0 1032181
06:00+6wnw358334 0.0 1032175
09:00+7nnw22645 0.0 1033529
12:00+9n334516 0.0 10321336
15:00+10nne224279 0.0 10311531
18:00+9ne234820 0.0 1032110
21:00+7e36505 0.0 1032194
27 october, wed
wed2700:00+5ese36540 0.0 1032191
03:00+4ese37620 0.0 1031191
06:00+3ese37650 0.0 1031169
09:00+6ese58510 0.0 1031455
12:00+10e67474 0.0 10281010
15:00+12e68420 0.0 10261173
18:00+9e610620 0.0 1027566
21:00+7e49720 0.0 1026430
28 october, thu
thu2800:00+6ene24830 0.0 1024103
03:00+5ne22890 0.0 102423
06:00+4wnw11930 0.0 102413
09:00+7wsw23780 0.0 1025292
12:00+12wnw34550 0.0 1024656
15:00+15wnw34450 0.0 1023850
18:00+12wnw22550 0.0 102423
21:00+10w33620 0.0 102431